Weather History for KBXA - November, 2012

Change the Weather History Date:

Wednesday, November 14, 2012

  Actual Average Record
Temperature  
Mean Temperature 48 °F -  
Max Temperature 61 °F 68 °F 68 °F (2013)
Min Temperature 35 °F 44 °F 30 °F (2013)
Degree Days  
Heating Degree Days 17    
Moisture  
Dew Point 34 °F    
Average Humidity 67    
Maximum Humidity 100    
Minimum Humidity 29    
Precipitation  
Precipitation 0.00 in - - ()
Sea Level Pressure  
Sea Level Pressure 30.30 in    
Wind  
Wind Speed 5 mph ()    
Max Wind Speed 13 mph    
Max Gust Speed -    
Visibility 10.0 miles    
Events Thunderstorm    
Averages and records for this station are not official NWS values.
T = Trace of Precipitation, MM = Missing Value Source: Averaged Metar Reports

Daily Weather History Graph

Daily Weather History Graph

Search for Another Location

Airport or City:

Trip Planner

Search our weather history database for the weather conditions in past years. The results will help you decide how hot, cold, wet, or windy it might be!

Date:

Astronomy

Nov. 14, 2012 Rise Set
Actual Time 6:25 AM CST 5:02 PM CST
Civil Twilight 6:00 AM CST 5:27 PM CST
Nautical Twilight 5:30 AM CST 5:56 PM CST
Astronomical Twilight 5:02 AM CST 6:25 PM CST
Moon 7:11 AM CST (11/14) 5:54 PM CST (11/14)
Length of Visible Light 11h 27m
Length of Day
10h 36m
New Moon, 1% of the Moon is Illuminated
Nov 14
New Moon
Nov 20
First Quarter
Nov 28
Full
Dec 6
Last Quarter
Dec 13
New

Hourly Weather History & Observations

Time (CST) Temp. Windchill Dew Point Humidity Pressure Visibility Wind Dir Wind Speed Gust Speed Precip Events Conditions
12:15 AM 42.6 °F 39.0 °F 34.2 °F 72% 30.30 in 10.0 mi NNE 5.8 mph - N/A   Unknown
12:35 AM 42.3 °F 40.5 °F 34.0 °F 72% 30.30 in 10.0 mi North 3.5 mph - N/A   Unknown
12:55 AM 42.3 °F 39.4 °F 34.0 °F 72% 30.30 in 10.0 mi NNE 4.6 mph - N/A   Unknown
1:15 AM 41.5 °F 37.8 °F 34.9 °F 77% 30.31 in 10.0 mi North 5.8 mph - N/A   Unknown
1:35 AM 41.9 °F 39.0 °F 34.3 °F 75% 30.31 in 10.0 mi North 4.6 mph - N/A   Unknown
2:15 AM 41.7 °F - 34.0 °F 74% 30.31 in 10.0 mi Calm Calm - N/A   Unknown
2:35 AM 41.9 °F 40.0 °F 34.5 °F 75% 30.32 in 10.0 mi North 3.5 mph - N/A   Unknown
2:55 AM 41.0 °F 39.0 °F 34.9 °F 79% 30.32 in 10.0 mi NNW 3.5 mph - N/A   Unknown
3:15 AM 41.0 °F 37.1 °F 34.5 °F 78% 30.32 in 10.0 mi North 5.8 mph - N/A   Unknown
3:35 AM 41.4 °F 38.4 °F 33.6 °F 74% 30.31 in 10.0 mi NNE 4.6 mph - N/A   Unknown
3:55 AM 41.2 °F 38.2 °F 33.6 °F 74% 30.31 in 10.0 mi North 4.6 mph - N/A   Unknown
4:15 AM 40.6 °F 38.6 °F 33.6 °F 76% 30.30 in 10.0 mi NNE 3.5 mph - N/A   Unknown
4:35 AM 39.7 °F 36.5 °F 34.2 °F 80% 30.32 in 10.0 mi NNW 4.6 mph - N/A   Unknown
4:55 AM 39.6 °F 35.4 °F 33.6 °F 79% 30.32 in 10.0 mi North 5.8 mph - N/A   Unknown
5:15 AM 39.0 °F 36.8 °F 32.5 °F 78% 30.31 in 10.0 mi North 3.5 mph - N/A   Unknown
5:35 AM 37.8 °F 35.3 °F 32.7 °F 82% 30.32 in 10.0 mi NW 3.5 mph - N/A   Unknown
5:55 AM 37.0 °F 33.3 °F 32.0 °F 82% 30.32 in 10.0 mi North 4.6 mph - N/A Thunderstorm Unknown
6:15 AM 36.5 °F 33.9 °F 32.0 °F 84% 30.33 in 10.0 mi North 3.5 mph - N/A   Unknown
6:35 AM 35.6 °F - 32.9 °F 90% 30.32 in 10.0 mi Calm Calm - N/A   Unknown
6:55 AM 36.1 °F 31.4 °F 32.4 °F 86% 30.32 in 10.0 mi NNE 5.8 mph - N/A   Unknown
7:15 AM 36.7 °F - 32.7 °F 86% 30.34 in 10.0 mi Calm Calm - N/A   Unknown
7:35 AM 39.4 °F 36.1 °F 33.4 °F 79% 30.34 in 10.0 mi North 4.6 mph - N/A   Unknown
7:55 AM 41.2 °F 39.2 °F 34.0 °F 76% 30.35 in 10.0 mi NNE 3.5 mph - N/A   Unknown
8:15 AM 43.3 °F 39.9 °F 34.3 °F 71% 30.35 in 10.0 mi North 5.8 mph - N/A   Unknown
8:35 AM 44.6 °F 41.4 °F 33.6 °F 65% 30.35 in 10.0 mi NNE 5.8 mph - N/A   Unknown
8:55 AM 46.9 °F - 34.7 °F 62% 30.35 in 10.0 mi North 5.8 mph - N/A   Unknown
9:15 AM 48.4 °F - 33.4 °F 56% 30.35 in 10.0 mi NNE 5.8 mph - N/A   Unknown
9:35 AM 50.2 °F - 34.0 °F 54% 30.35 in 10.0 mi North 5.8 mph - N/A   Unknown
9:55 AM 50.9 °F - 33.6 °F 52% 30.36 in 10.0 mi North 4.6 mph - N/A   Unknown
10:15 AM 52.0 °F - 32.7 °F 48% 30.35 in 10.0 mi NNW 4.6 mph - N/A   Unknown
10:35 AM 53.2 °F - 32.5 °F 45% 30.34 in 10.0 mi North 3.5 mph - N/A   Unknown
11:15 AM 56.3 °F - 32.0 °F 40% 30.32 in 10.0 mi North 5.8 mph - N/A   Unknown
11:35 AM 56.7 °F - 31.3 °F 38% 30.31 in 10.0 mi NNW 9.2 mph - N/A   Unknown
11:55 AM 56.8 °F - 31.5 °F 38% 30.30 in 10.0 mi NNW 9.2 mph - N/A   Unknown
12:15 PM 58.1 °F - 30.9 °F 36% 30.29 in 10.0 mi NNW 5.8 mph - N/A   Unknown
12:35 PM 58.6 °F - 30.7 °F 35% 30.28 in 10.0 mi North 5.8 mph - N/A   Unknown
12:55 PM 59.9 °F - 29.7 °F 32% 30.28 in 10.0 mi North 12.7 mph - N/A   Unknown
1:15 PM 60.6 °F - 29.5 °F 31% 30.27 in 10.0 mi NW 8.1 mph - N/A   Unknown
1:35 PM 61.0 °F - 30.6 °F 32% 30.26 in 10.0 mi North 6.9 mph - N/A   Unknown
1:55 PM 61.0 °F - 29.7 °F 31% 30.26 in 10.0 mi NNW 8.1 mph - N/A   Unknown
2:15 PM 61.9 °F - 28.8 °F 29% 30.25 in 10.0 mi North 11.5 mph - N/A   Unknown
2:35 PM 61.7 °F - 29.8 °F 30% 30.25 in 10.0 mi North 8.1 mph - N/A   Unknown
2:55 PM 61.7 °F - 31.1 °F 32% 30.24 in 10.0 mi North 12.7 mph - N/A   Unknown
3:15 PM 61.2 °F - 29.8 °F 31% 30.24 in 10.0 mi NNW 10.4 mph - N/A   Unknown
3:35 PM 61.0 °F - 30.0 °F 31% 30.24 in 10.0 mi NNW 10.4 mph - N/A   Unknown
3:55 PM 60.4 °F - 30.9 °F 33% 30.24 in 10.0 mi North 6.9 mph - N/A   Unknown
4:35 PM 57.7 °F - 33.8 °F 41% 30.25 in 10.0 mi NNE 5.8 mph - N/A   Unknown
4:55 PM 54.7 °F - 34.5 °F 47% 30.25 in 10.0 mi North 4.6 mph - N/A   Unknown
5:35 PM 47.8 °F - 41.9 °F 80% 30.26 in 10.0 mi North 3.5 mph - N/A   Unknown
5:55 PM 46.6 °F - 42.4 °F 85% 30.26 in 10.0 mi Calm Calm - N/A   Unknown
6:15 PM 45.5 °F - 41.2 °F 85% 30.27 in 10.0 mi Calm Calm - N/A   Unknown
6:35 PM 44.2 °F - 41.5 °F 90% 30.28 in 10.0 mi Calm Calm - N/A   Unknown
6:55 PM 43.3 °F - 43.3 °F 100% 30.28 in 10.0 mi Calm Calm - N/A   Unknown
7:15 PM 43.2 °F 41.5 °F 41.0 °F 92% 30.29 in 10.0 mi North 3.5 mph - N/A   Unknown
7:35 PM 41.9 °F 39.0 °F 41.4 °F 98% 30.29 in 10.0 mi North 4.6 mph - N/A   Unknown
8:15 PM 43.0 °F 39.5 °F 36.1 °F 77% 30.29 in 10.0 mi North 5.8 mph - N/A   Unknown
8:35 PM 42.8 °F 38.6 °F 35.8 °F 76% 30.29 in 10.0 mi North 6.9 mph - N/A   Unknown
8:55 PM 41.2 °F 37.3 °F 36.0 °F 82% 30.30 in 10.0 mi North 5.8 mph - N/A   Unknown
9:15 PM 40.8 °F 36.9 °F 35.6 °F 82% 30.30 in 10.0 mi North 5.8 mph - N/A   Unknown
9:35 PM 41.0 °F 36.4 °F 35.6 °F 81% 30.29 in 10.0 mi North 6.9 mph - N/A   Unknown
9:55 PM 41.0 °F 37.1 °F 35.2 °F 80% 30.29 in 10.0 mi North 5.8 mph - N/A   Unknown
10:15 PM 40.5 °F 37.3 °F 35.4 °F 82% 30.29 in 10.0 mi North 4.6 mph - N/A   Unknown
10:35 PM 38.5 °F 36.1 °F 38.5 °F 100% 30.29 in 10.0 mi North 3.5 mph - N/A   Unknown
11:15 PM 39.0 °F 36.8 °F 35.8 °F 88% 30.30 in 10.0 mi North 3.5 mph - N/A   Unknown
11:35 PM 38.5 °F - 35.1 °F 87% 30.30 in 10.0 mi Calm Calm - N/A   Unknown
11:55 PM 38.5 °F - 35.1 °F 87% 30.29 in 10.0 mi Calm Calm - N/A   Unknown